Sault Ste Marie, MI

12:21 AM EDT on August 24, 2017 (GMT -0400)
Sault Ste Marie Municipal / Sanderson Field

Weather History for KANJ - March, 2012

Change the Weather History Date:

Saturday, March 3, 2012

  Actual Average Record
Temperature  
Mean Temperature 19 °F 22 °F  
Max Temperature 32 °F 30 °F 50 °F (1974)
Min Temperature 6 °F 13 °F -24 °F (1943)
Degree Days  
Heating Degree Days 46 43  
Month to date heating degree days 113 131  
Since 1 July heating degree days 5271 6257  
Cooling Degree Days 0 0  
Month to date cooling degree days 0 0  
Year to date cooling degree days 0 0  
Moisture  
Dew Point 15 °F    
Average Humidity 83    
Maximum Humidity 92    
Minimum Humidity 73    
Precipitation  
Precipitation 0.52 in 0.05 in 1.08 in (2008)
Month to date precipitation 0.84 0.16  
Year to date precipitation 4.79 3.69  
Snow  
Snow 5.50 in 0.60 in 5.50 in (2012)
Month to date snowfall 7.9 1.7  
Since 1 July snowfall 78.5 101.9  
Snow Depth 19.00 in    
Sea Level Pressure  
Sea Level Pressure 29.38 in    
Wind  
Wind Speed 10 mph (NNW)    
Max Wind Speed 18 mph    
Max Gust Speed 25 mph    
Visibility 2 miles    
Events Fog , Snow    
T = Trace of Precipitation, MM = Missing Value Source: NWS Daily Summary

Daily Weather History Graph

Daily Weather History Graph

Search for Another Location

Airport or City:

Trip Planner

Search our weather history database for the weather conditions in past years. The results will help you decide how hot, cold, wet, or windy it might be!

Date:

Astronomy

Mar. 03, 2012 Rise Set
Actual Time 7:12 AM EST 6:27 PM EST
Civil Twilight 6:42 AM EST 6:57 PM EST
Nautical Twilight 6:07 AM EST 7:32 PM EST
Astronomical Twilight 5:32 AM EST 8:07 PM EST
Moon 1:21 PM EST (3/3) 4:03 AM EST (3/3)
Length of Visible Light 12h 15m
Length of Day
11h 14m
Waxing Gibbous, 75% of the Moon is Illuminated
Mar 3
Waxing Gibbous
Mar 8
Full
Mar 14
Last Quarter
Mar 22
New
Mar 30
First Quarter

Hourly Weather History & Observations

Time (EST) Temp. Windchill Dew Point Humidity Pressure Visibility Wind Dir Wind Speed Gust Speed Precip Events Conditions
12:55 AM 32.0 °F 25.6 °F 30.0 °F 92% 29.20 in 0.5 mi NNE 6.9 mph - 0.13 in Fog , Snow Snow
1:26 AM 32.0 °F 24.8 °F 30.2 °F 93% 29.15 in 0.8 mi North 8.1 mph - 0.06 in Snow Light Snow
1:40 AM 32.0 °F 23.0 °F 30.2 °F 93% 29.13 in 0.5 mi North 11.5 mph - 0.09 in Fog , Snow Snow
1:55 AM 32.0 °F 24.2 °F 30.0 °F 92% 29.15 in 0.5 mi North 9.2 mph - 0.12 in Fog , Snow Snow
2:27 AM 32.0 °F 22.5 °F 28.4 °F 87% 29.11 in 1.0 mi North 12.7 mph - 0.03 in Snow Light Snow
2:55 AM 32.0 °F 23.6 °F 28.9 °F 88% 29.11 in 1.0 mi North 10.4 mph 18.4 mph 0.06 in Snow Light Snow
3:22 AM 32.0 °F 23.6 °F 28.4 °F 87% 29.07 in 1.2 mi North 10.4 mph - 0.02 in Snow Light Snow
3:32 AM 30.2 °F 21.3 °F 28.4 °F 93% 29.06 in 1.2 mi North 10.4 mph 19.6 mph 0.03 in Snow Light Snow
3:55 AM 30.9 °F 21.2 °F 28.0 °F 89% 29.08 in 1.2 mi North 12.7 mph 19.6 mph 0.03 in Snow Light Snow
4:05 AM 30.2 °F 20.8 °F 28.4 °F 93% 29.07 in 1.8 mi North 11.5 mph 19.6 mph 0.01 in Snow Light Snow
4:17 AM 30.2 °F 20.8 °F 28.4 °F 93% 29.07 in 2.0 mi North 11.5 mph 20.7 mph 0.01 in Snow Light Snow
4:39 AM 30.2 °F 21.9 °F 28.4 °F 93% 29.08 in 1.8 mi NW 9.2 mph 17.3 mph 0.01 in Snow Light Snow
4:55 AM 30.9 °F 22.8 °F 28.0 °F 89% 29.10 in 1.2 mi North 9.2 mph 18.4 mph 0.02 in Snow Light Snow
5:29 AM 30.2 °F 21.3 °F 26.6 °F 86% 29.09 in 1.0 mi NW 10.4 mph - 0.03 in Snow Light Snow
5:55 AM 28.9 °F 19.8 °F 27.0 °F 92% 29.12 in 1.2 mi NW 10.4 mph - 0.05 in Snow Light Snow
6:03 AM 28.4 °F 19.1 °F 26.6 °F 93% 29.11 in 1.0 mi NNW 10.4 mph - 0.00 in Snow Light Snow
6:21 AM 28.4 °F 18.0 °F 26.6 °F 93% 29.12 in 1.0 mi NW 12.7 mph - 0.02 in Snow Light Snow
6:38 AM 28.4 °F 18.0 °F 26.6 °F 93% 29.13 in 1.2 mi NW 12.7 mph - 0.03 in Snow Light Snow
6:55 AM 28.0 °F 18.1 °F 25.0 °F 88% 29.16 in 1.8 mi NNW 11.5 mph 24.2 mph 0.04 in Snow Light Snow
7:31 AM 26.6 °F 14.7 °F 23.0 °F 86% 29.16 in 0.8 mi NNW 15.0 mph 21.9 mph 0.02 in Snow Light Snow
7:52 AM 26.6 °F 16.2 °F 21.2 °F 80% 29.19 in 0.8 mi NNW 11.5 mph 24.2 mph 0.03 in Snow Light Snow
7:55 AM 26.1 °F 16.2 °F 21.9 °F 84% 29.21 in 0.8 mi NNW 10.4 mph 24.2 mph 0.03 in Snow Light Snow
8:03 AM 24.8 °F 13.4 °F 21.2 °F 86% 29.20 in 1.0 mi NNW 12.7 mph 21.9 mph 0.00 in Snow Light Snow
8:29 AM 24.8 °F 14.0 °F 19.4 °F 80% 29.22 in 1.2 mi NNW 11.5 mph 24.2 mph 0.00 in Snow Light Snow
8:53 AM 21.2 °F 6.4 °F 15.8 °F 80% 29.25 in 2.0 mi North 18.4 mph 23.0 mph 0.00 in Snow Light Snow
8:55 AM 21.9 °F 9.2 °F 16.0 °F 78% 29.27 in 2.5 mi North 13.8 mph 23.0 mph 0.00 in Snow Light Snow
9:02 AM 21.2 °F 10.9 °F 15.8 °F 80% 29.26 in 3.0 mi North 9.2 mph 19.6 mph 0.00 in Snow Light Snow
9:13 AM 21.2 °F 8.9 °F 15.8 °F 80% 29.27 in 2.5 mi North 12.7 mph - 0.00 in Snow Light Snow
9:21 AM 21.2 °F 10.9 °F 15.8 °F 80% 29.28 in 2.0 mi North 9.2 mph - 0.00 in Snow Light Snow
9:30 AM 21.2 °F 9.5 °F 15.8 °F 80% 29.28 in 1.2 mi North 11.5 mph - 0.00 in Snow Light Snow
9:41 AM 19.4 °F 6.0 °F 14.0 °F 80% 29.28 in 0.8 mi North 13.8 mph 21.9 mph 0.00 in Snow Light Snow
9:53 AM 19.4 °F 6.6 °F 12.2 °F 74% 29.28 in 1.0 mi North 12.7 mph 23.0 mph 0.00 in Snow Light Snow
9:55 AM 19.0 °F 6.8 °F 12.9 °F 77% 29.31 in 0.8 mi North 11.5 mph 23.0 mph 0.00 in Snow Light Snow
10:19 AM 19.4 °F 7.2 °F 14.0 °F 80% 29.30 in 0.8 mi North 11.5 mph - 0.01 in Snow Light Snow
10:50 AM 19.4 °F 10.4 °F 14.0 °F 80% 29.33 in 1.0 mi North 6.9 mph - 0.02 in Snow Light Snow
10:55 AM 19.0 °F 10.0 °F 14.0 °F 81% 29.36 in 1.2 mi North 6.9 mph - 0.02 in Snow Light Snow
11:28 AM 19.4 °F 8.6 °F 12.2 °F 74% 29.35 in 3.0 mi North 9.2 mph 18.4 mph 0.00 in Snow Light Snow
11:55 AM 18.0 °F 5.4 °F 10.0 °F 71% 29.40 in 6.0 mi NNW 11.5 mph 18.4 mph 0.00 in   Haze
12:33 PM 19.4 °F 9.5 °F 10.4 °F 68% 29.39 in 3.0 mi North 8.1 mph - 0.00 in Snow Light Snow
12:39 PM 19.4 °F 7.2 °F 12.2 °F 74% 29.40 in 2.5 mi NNW 11.5 mph - 0.00 in Snow Light Snow
12:55 PM 19.0 °F 7.5 °F 12.0 °F 74% 29.42 in 2.5 mi NW 10.4 mph - 0.00 in Snow Light Snow
1:03 PM 19.4 °F 8.6 °F 12.2 °F 74% 29.41 in 4.0 mi North 9.2 mph - 0.00 in Snow Light Snow
1:16 PM 17.6 °F 8.2 °F 10.4 °F 73% 29.42 in 5.0 mi North 6.9 mph - 0.00 in Snow Light Snow
1:42 PM 17.6 °F 5.7 °F 10.4 °F 73% 29.43 in 2.5 mi NW 10.4 mph - 0.00 in Snow Light Snow
1:55 PM 18.0 °F 6.9 °F 10.9 °F 74% 29.46 in 2.0 mi NNW 9.2 mph - 0.00 in Snow Light Snow
2:20 PM 17.6 °F 5.0 °F 10.4 °F 73% 29.45 in 1.2 mi NW 11.5 mph - 0.00 in Snow Light Snow
2:32 PM 17.6 °F 5.0 °F 10.4 °F 73% 29.46 in 1.0 mi NW 11.5 mph - 0.00 in Snow Light Snow
2:40 PM 17.6 °F 5.0 °F 10.4 °F 73% 29.46 in 1.0 mi NNW 11.5 mph - 0.01 in Snow Light Snow
2:55 PM 18.0 °F 5.4 °F 12.0 °F 78% 29.49 in 1.0 mi NW 11.5 mph - 0.01 in Snow Light Snow
3:30 PM 17.6 °F 5.7 °F 10.4 °F 73% 29.48 in 2.5 mi North 10.4 mph 20.7 mph 0.00 in Snow Light Snow
3:47 PM 17.6 °F 5.7 °F 12.2 °F 79% 29.50 in 1.5 mi NNW 10.4 mph - 0.00 in Snow Light Snow
3:55 PM 18.0 °F 6.1 °F 12.0 °F 78% 29.54 in 1.5 mi North 10.4 mph - 0.00 in Snow Light Snow
4:04 PM 17.6 °F 5.7 °F 10.4 °F 73% 29.51 in 2.5 mi North 10.4 mph - 0.00 in Snow Light Snow
4:18 PM 17.6 °F 8.2 °F 10.4 °F 73% 29.52 in 1.8 mi NNW 6.9 mph - 0.00 in Snow Light Snow
4:44 PM 17.6 °F 8.2 °F 8.6 °F 68% 29.54 in 2.5 mi NNW 6.9 mph 18.4 mph 0.00 in Snow Light Snow
4:55 PM 17.1 °F 6.6 °F 10.9 °F 77% 29.58 in 1.8 mi NW 8.1 mph - 0.00 in Snow Light Snow
5:31 PM 15.8 °F 4.2 °F 10.4 °F 79% 29.58 in 2.0 mi NNW 9.2 mph - 0.00 in Snow Light Snow
5:46 PM 15.8 °F 2.7 °F 10.4 °F 79% 29.59 in 1.8 mi NW 11.5 mph - 0.00 in Snow Light Snow
5:55 PM 16.0 °F 6.3 °F 10.0 °F 77% 29.62 in 2.0 mi NW 6.9 mph - 0.00 in Snow Light Snow
6:55 PM 15.1 °F 0.5 °F 9.0 °F 77% 29.66 in 2.0 mi NNW 13.8 mph 17.3 mph 0.00 in Snow Light Snow
7:55 PM 10.9 °F -3.4 °F 3.9 °F 73% 29.70 in 3.0 mi North 11.5 mph 20.7 mph 0.00 in Snow Light Snow
8:14 PM 10.4 °F -2.4 °F 3.2 °F 73% 29.69 in 5.0 mi North 9.2 mph - 0.00 in Snow Light Snow
8:55 PM 10.0 °F -1.9 °F 1.9 °F 70% 29.73 in 10.0 mi NNW 8.1 mph - 0.00 in   Overcast
9:55 PM 9.0 °F -3.2 °F 1.0 °F 70% 29.77 in 9.0 mi North 8.1 mph - N/A   Overcast
10:26 PM 8.6 °F 0.1 °F 1.4 °F 73% 29.73 in 3.0 mi NNW 4.6 mph - 0.00 in Snow Light Snow
10:38 PM 8.6 °F -3.7 °F 1.4 °F 73% 29.73 in 2.5 mi NNW 8.1 mph - 0.00 in Snow Light Snow
10:52 PM 8.6 °F -3.7 °F 1.4 °F 73% 29.73 in 1.2 mi North 8.1 mph - 0.00 in Snow Light Snow
10:55 PM 8.1 °F -6.2 °F 1.0 °F 73% 29.78 in 1.0 mi North 10.4 mph - 0.00 in Snow Light Snow
11:10 PM 6.8 °F -5.9 °F 1.4 °F 79% 29.74 in 1.0 mi North 8.1 mph - 0.01 in Snow Light Snow
11:20 PM 6.8 °F -7.8 °F 1.4 °F 79% 29.74 in 1.5 mi North 10.4 mph - 0.01 in Snow Light Snow
11:27 PM 6.8 °F -7.8 °F -0.4 °F 72% 29.75 in 3.0 mi North 10.4 mph - 0.02 in Snow Light Snow
11:37 PM 6.8 °F -6.9 °F -0.4 °F 72% 29.75 in 3.0 mi North 9.2 mph - 0.02 in Snow Light Snow
11:55 PM 6.1 °F -5.6 °F -0.9 °F 73% 29.79 in 5.0 mi North 6.9 mph - 0.02 in Snow Light Snow